Location: Aalen
(48.8330°N, 10.1000°E)
Time: 22:34:53
(UTC+02:00)

Transit 2A - Pass Details

Date: 30 July 2021
Orbit: 594 x 964 km, 66.7° (Epoch: 27 September)

Event Time Altitude Azimuth Distance (km) Brightness Sun altitude
Rises 11:51:29 0° 303° (WNW) 2,982 8.7 54.1°
Reaches altitude 10° 11:56:32 10° 350° (N) 2,179 8.2 54.6°
Maximum altitude 11:56:53 10° 355° (N) 2,182 8.2 54.6°
Drops below altitude 10° 11:57:16 10° 359° (N) 2,197 8.2 54.7°
Sets 12:02:41 0° 45° (NE) 3,253 9.2 55.2°
